Location: Karlovy Vary
(50.2170°N, 12.9000°E)
Time: 23:59:09
(UTC+01:00)

ISS - Pass Details

Date: 02 October 2020
Orbit: 417 x 420 km, 51.6° (Epoch: 30 October)

Event Time Altitude Azimuth Distance (km) Brightness Sun altitude
Rises 20:19:48 0° 287° (WNW) 2,368 1.9 -16.1°
Reaches altitude 10° 20:21:57 10° 281° (W) 1,502 0.4 -16.4°
Maximum altitude 20:25:10 44° 208° (SSW) 592 -3.0 -16.9°
Enters shadow 20:26:14 32° 161° (SSE) 743 -2.8 -17.1°
